Time,TemperatureF,DewpointF,PressureIn,WindDirection,WindDirectionDegrees,WindSpeedMPH,WindSpeedGustMPH,Humidity,HourlyPrecipIn,Conditions,Clouds,dailyrainin,SolarRadiationWatts/m^2,SoftwareType,DateUTC
2013-06-28 00:01:00,48.6,46.9,29.03,NNW,340,0.0,0.0,94,0.00,CLR,FEW,0.00,0.0,WeatherDisplay:10.37,2013-06-27 22:01:00,
2013-06-28 00:06:00,48.6,46.9,29.03,NNW,340,0.0,0.0,94,0.00,CLR,FEW,0.00,0.0,WeatherDisplay:10.37,2013-06-27 22:06:00,
2013-06-28 00:12:00,48.4,46.7,29.03,NNW,340,0.0,0.0,94,0.00,CLR,FEW,0.00,0.0,WeatherDisplay:10.37,2013-06-27 22:12:00,
2013-06-28 00:17:00,48.4,46.7,29.03,NNW,340,0.0,0.0,94,0.00,CLR,FEW,0.00,0.0,WeatherDisplay:10.37,2013-06-27 22:17:00,
2013-06-28 00:22:00,48.7,47.1,29.03,NNW,340,0.0,0.0,94,0.00,CLR,FEW,0.00,0.0,WeatherDisplay:10.37,2013-06-27 22:22:00,
2013-06-28 00:27:00,48.4,46.7,29.03,NNW,340,0.0,0.0,94,0.00,CLR,FEW,0.00,0.0,WeatherDisplay:10.37,2013-06-27 22:27:00,
2013-06-28 00:33:00,48.2,46.6,29.03,NNW,340,0.0,0.0,94,0.00,CLR,FEW,0.00,0.0,WeatherDisplay:10.37,2013-06-27 22:33:00,
2013-06-28 00:38:00,48.2,46.6,29.03,NNW,340,0.0,0.0,94,0.00,CLR,FEW,0.00,0.0,WeatherDisplay:10.37,2013-06-27 22:38:00,
2013-06-28 00:43:00,48.2,46.6,29.03,NNW,340,0.0,0.0,94,0.00,CLR,FEW,0.00,0.0,WeatherDisplay:10.37,2013-06-27 22:43:00,
2013-06-28 00:48:00,48.0,46.4,29.03,NNW,340,0.0,0.0,94,0.00,CLR,FEW,0.00,0.0,WeatherDisplay:10.37,2013-06-27 22:48:00,
2013-06-28 00:53:00,47.8,46.5,29.03,NNW,340,0.0,0.0,95,0.00,CLR,FEW,0.00,0.0,WeatherDisplay:10.37,2013-06-27 22:53:00,
2013-06-28 00:58:00,47.7,46.3,29.03,NNW,340,0.0,0.0,95,0.00,CLR,FEW,0.00,0.0,WeatherDisplay:10.37,2013-06-27 22:58:00,
2013-06-28 01:03:00,47.7,46.3,29.03,NNW,340,0.0,0.0,95,0.00,CLR,FEW,0.00,0.0,WeatherDisplay:10.37,2013-06-27 23:03:00,
2013-06-28 01:08:00,47.8,46.5,29.03,NNW,340,0.0,0.0,95,0.00,CLR,FEW,0.00,0.0,WeatherDisplay:10.37,2013-06-27 23:08:00,
2013-06-28 01:14:00,47.8,46.5,29.03,NNW,340,0.0,0.0,95,0.00,CLR,FEW,0.00,0.0,WeatherDisplay:10.37,2013-06-27 23:14:00,
2013-06-28 01:19:00,47.8,46.5,29.03,NNW,340,0.0,0.0,95,0.00,CLR,FEW,0.00,0.0,WeatherDisplay:10.37,2013-06-27 23:19:00,
2013-06-28 01:24:00,47.8,46.5,29.03,NNW,340,0.0,0.0,95,0.00,CLR,FEW,0.00,0.0,WeatherDisplay:10.37,2013-06-27 23:24:00,
2013-06-28 01:29:00,47.7,46.3,29.03,NNW,340,0.0,0.0,95,0.00,CLR,FEW,0.00,0.0,WeatherDisplay:10.37,2013-06-27 23:29:00,
2013-06-28 01:34:00,47.7,46.3,29.03,NNW,340,0.0,0.0,95,0.00,CLR,FEW,0.00,0.0,WeatherDisplay:10.37,2013-06-27 23:34:00,
2013-06-28 01:40:00,48.0,46.7,29.03,NW,320,0.0,0.0,95,0.00,CLR,FEW,0.00,0.0,WeatherDisplay:10.37,2013-06-27 23:40:00,
2013-06-28 01:45:00,48.2,46.8,29.03,NW,315,0.0,0.0,95,0.00,CLR,FEW,0.00,0.0,WeatherDisplay:10.37,2013-06-27 23:45:00,
2013-06-28 01:50:00,48.2,46.8,29.03,NW,315,0.0,0.0,95,0.00,CLR,FEW,0.00,0.0,WeatherDisplay:10.37,2013-06-27 23:50:00,
2013-06-28 01:55:00,47.3,45.9,29.03,NNW,340,0.0,0.0,95,0.00,CLR,FEW,0.00,0.0,WeatherDisplay:10.37,2013-06-27 23:55:00,
2013-06-28 02:00:00,47.1,45.8,29.03,NNW,340,0.0,0.0,95,0.00,CLR,FEW,0.00,0.0,WeatherDisplay:10.37,2013-06-28 00:00:00,
2013-06-28 02:05:00,46.9,45.6,29.03,NNW,340,0.0,0.0,95,0.00,CLR,FEW,0.00,0.0,WeatherDisplay:10.37,2013-06-28 00:05:00,
2013-06-28 02:11:00,46.6,45.2,29.03,NNW,340,0.0,0.0,95,0.00,CLR,FEW,0.00,0.0,WeatherDisplay:10.37,2013-06-28 00:11:00,
2013-06-28 02:16:00,46.2,45.1,29.00,NNW,340,0.0,0.0,96,0.00,CLR,FEW,0.00,0.0,WeatherDisplay:10.37,2013-06-28 00:16:00,
2013-06-28 02:21:00,46.4,45.3,29.00,West,270,0.0,0.0,96,0.00,CLR,FEW,0.00,0.0,WeatherDisplay:10.37,2013-06-28 00:21:00,
2013-06-28 02:27:00,46.4,45.3,29.03,West,270,1.1,1.3,96,0.00,CLR,FEW,0.00,0.0,WeatherDisplay:10.37,2013-06-28 00:27:00,
2013-06-28 02:32:00,46.4,45.3,29.03,West,270,1.1,1.3,96,0.00,CLR,FEW,0.00,0.0,WeatherDisplay:10.37,2013-06-28 00:32:00,
2013-06-28 02:38:00,46.0,45.0,29.00,West,270,0.0,0.0,96,0.00,CLR,FEW,0.00,0.0,WeatherDisplay:10.37,2013-06-28 00:38:00,
2013-06-28 02:43:00,46.0,45.0,29.00,West,270,0.0,0.0,96,0.00,CLR,FEW,0.00,0.0,WeatherDisplay:10.37,2013-06-28 00:43:00,
2013-06-28 02:48:00,45.9,44.5,29.00,West,270,0.0,0.0,95,0.00,CLR,FEW,0.00,0.0,WeatherDisplay:10.37,2013-06-28 00:48:00,
2013-06-28 02:53:00,45.9,44.5,29.00,West,270,0.0,0.0,95,0.00,CLR,FEW,0.00,0.0,WeatherDisplay:10.37,2013-06-28 00:53:00,
2013-06-28 02:58:00,46.0,45.0,29.00,West,270,0.0,0.0,96,0.00,CLR,FEW,0.00,0.0,WeatherDisplay:10.37,2013-06-28 00:58:00,
2013-06-28 03:03:00,46.0,45.0,29.00,West,270,0.0,0.0,96,0.00,CLR,FEW,0.00,0.0,WeatherDisplay:10.37,2013-06-28 01:03:00,
2013-06-28 03:09:00,46.0,45.0,29.00,West,270,0.0,0.0,96,0.00,CLR,FEW,0.00,0.0,WeatherDisplay:10.37,2013-06-28 01:09:00,
2013-06-28 03:14:00,45.9,44.8,29.00,West,270,0.0,0.0,96,0.00,CLR,FEW,0.00,0.0,WeatherDisplay:10.37,2013-06-28 01:14:00,
2013-06-28 03:19:00,45.9,44.8,29.00,West,270,0.0,0.0,96,0.00,CLR,FEW,0.00,0.0,WeatherDisplay:10.37,2013-06-28 01:19:00,
2013-06-28 03:24:00,45.5,44.4,29.00,West,270,0.0,0.0,96,0.00,CLR,FEW,0.00,0.0,WeatherDisplay:10.37,2013-06-28 01:24:00,
2013-06-28 03:29:00,45.3,44.2,29.00,West,270,0.0,0.0,96,0.00,CLR,FEW,0.00,0.0,WeatherDisplay:10.37,2013-06-28 01:29:00,
2013-06-28 03:35:00,45.3,44.2,29.00,West,270,0.0,0.0,96,0.00,CLR,FEW,0.00,0.0,WeatherDisplay:10.37,2013-06-28 01:35:00,
2013-06-28 03:40:00,45.5,44.4,29.00,West,270,0.0,0.0,96,0.00,CLR,FEW,0.00,0.0,WeatherDisplay:10.37,2013-06-28 01:40:00,
2013-06-28 03:45:00,45.1,44.1,29.00,West,270,0.0,0.0,96,0.00,CLR,FEW,0.00,0.0,WeatherDisplay:10.37,2013-06-28 01:45:00,
2013-06-28 03:50:00,45.1,44.1,29.00,West,270,0.0,0.0,96,0.00,CLR,FEW,0.00,0.0,WeatherDisplay:10.37,2013-06-28 01:50:00,
2013-06-28 03:55:00,44.8,43.7,29.00,West,270,0.0,0.0,96,0.00,CLR,FEW,0.00,0.0,WeatherDisplay:10.37,2013-06-28 01:55:00,
2013-06-28 04:00:00,44.6,43.5,29.00,West,275,0.0,0.0,96,0.00,CLR,FEW,0.00,0.0,WeatherDisplay:10.37,2013-06-28 02:00:00,
2013-06-28 04:05:00,44.4,43.4,29.00,NNW,345,0.0,0.0,96,0.00,CLR,FEW,0.00,0.0,WeatherDisplay:10.37,2013-06-28 02:05:00,
2013-06-28 04:11:00,44.1,43.0,29.00,NNW,345,0.0,0.0,96,0.00,CLR,FEW,0.00,0.0,WeatherDisplay:10.37,2013-06-28 02:11:00,
2013-06-28 04:16:00,43.5,42.5,29.00,NNW,345,0.0,0.0,96,0.00,CLR,FEW,0.00,0.0,WeatherDisplay:10.37,2013-06-28 02:16:00,
2013-06-28 04:21:00,43.3,42.3,29.00,NNW,340,0.0,0.0,96,0.00,CLR,FEW,0.00,0.0,WeatherDisplay:10.37,2013-06-28 02:21:00,
2013-06-28 04:26:00,43.3,42.3,29.00,NNW,340,0.0,0.0,96,0.00,CLR,FEW,0.00,0.0,WeatherDisplay:10.37,2013-06-28 02:26:00,
2013-06-28 04:31:00,43.2,42.1,29.00,NNW,340,0.0,0.0,96,0.00,OVC,FEW,0.00,0.0,WeatherDisplay:10.37,2013-06-28 02:31:00,
2013-06-28 04:36:00,43.2,42.1,29.00,NNW,340,0.0,0.0,96,0.00,OVC,FEW,0.00,0.0,WeatherDisplay:10.37,2013-06-28 02:36:00,
2013-06-28 04:41:00,43.5,42.5,29.00,West,275,0.0,0.0,96,0.00,OVC,FEW,0.00,0.0,WeatherDisplay:10.37,2013-06-28 02:41:00,
2013-06-28 04:46:00,43.3,42.3,29.00,West,275,0.0,0.0,96,0.00,OVC,FEW,0.00,0.0,WeatherDisplay:10.37,2013-06-28 02:46:00,
2013-06-28 04:51:00,43.5,42.5,29.00,West,275,0.0,0.0,96,0.00,OVC,FEW,0.00,0.0,WeatherDisplay:10.37,2013-06-28 02:51:00,
2013-06-28 04:57:00,43.2,42.4,29.00,West,275,0.0,0.0,97,0.00,OVC,FEW,0.00,0.0,WeatherDisplay:10.37,2013-06-28 02:57:00,
2013-06-28 05:02:00,43.2,42.1,29.00,West,275,0.0,0.0,96,0.00,OVC,FEW,0.00,0.0,WeatherDisplay:10.37,2013-06-28 03:02:00,
2013-06-28 05:07:00,43.2,42.1,29.00,West,275,0.0,0.0,96,0.00,OVC,FEW,0.00,0.0,WeatherDisplay:10.37,2013-06-28 03:07:00,
2013-06-28 05:12:00,43.2,42.1,29.00,West,275,0.0,0.0,96,0.00,OVC,FEW,0.00,0.0,WeatherDisplay:10.37,2013-06-28 03:12:00,
2013-06-28 05:17:00,42.8,42.0,29.00,West,275,0.0,0.0,97,0.00,OVC,FEW,0.00,0.0,WeatherDisplay:10.37,2013-06-28 03:17:00,
2013-06-28 05:22:00,43.3,42.5,29.00,West,275,0.0,0.0,97,0.00,OVC,FEW,0.00,0.0,WeatherDisplay:10.37,2013-06-28 03:22:00,
2013-06-28 05:28:00,43.3,42.5,29.00,West,275,0.0,0.0,97,0.00,OVC,FEW,0.00,0.0,WeatherDisplay:10.37,2013-06-28 03:28:00,
2013-06-28 05:33:00,43.5,42.7,29.00,West,275,0.0,0.0,97,0.00,OVC,FEW,0.00,0.0,WeatherDisplay:10.37,2013-06-28 03:33:00,
2013-06-28 05:38:00,43.5,42.7,29.00,West,275,0.0,0.0,97,0.00,OVC,FEW,0.00,0.0,WeatherDisplay:10.37,2013-06-28 03:38:00,
2013-06-28 05:43:00,43.3,42.5,29.00,West,275,0.0,0.0,97,0.00,OVC,FEW,0.00,0.0,WeatherDisplay:10.37,2013-06-28 03:43:00,
2013-06-28 05:48:00,42.8,42.0,29.00,North,350,0.0,0.0,97,0.00,OVC,FEW,0.00,0.0,WeatherDisplay:10.37,2013-06-28 03:48:00,
2013-06-28 05:53:00,42.8,42.0,29.00,North,350,1.1,1.1,97,0.00,OVC,FEW,0.00,0.0,WeatherDisplay:10.37,2013-06-28 03:53:00,
2013-06-28 05:58:00,43.2,42.4,29.00,North,10,0.0,0.0,97,0.00,OVC,FEW,0.00,0.0,WeatherDisplay:10.37,2013-06-28 03:58:00,
2013-06-28 06:01:00,43.2,42.4,29.00,North,10,0.0,0.0,97,0.00,OVC,FEW,0.00,0.0,WeatherDisplay:10.37,2013-06-28 04:01:00,
2013-06-28 06:06:00,43.5,42.7,29.00,North,10,0.0,0.0,97,0.00,OVC,FEW,0.00,0.0,WeatherDisplay:10.37,2013-06-28 04:06:00,
2013-06-28 06:11:00,43.9,43.1,29.00,North,350,0.0,0.0,97,0.00,OVC,FEW,0.00,0.0,WeatherDisplay:10.37,2013-06-28 04:11:00,
2013-06-28 06:16:00,44.4,43.6,29.00,NNE,25,1.1,1.1,97,0.00,OVC,FEW,0.00,0.0,WeatherDisplay:10.37,2013-06-28 04:16:00,
2013-06-28 06:21:00,45.1,44.3,29.00,NNE,20,0.0,0.0,97,0.00,OVC,FEW,0.00,0.0,WeatherDisplay:10.37,2013-06-28 04:21:00,
2013-06-28 06:26:00,45.1,44.3,29.00,NNW,335,0.0,0.0,97,0.00,OVC,FEW,0.00,0.0,WeatherDisplay:10.37,2013-06-28 04:26:00,
2013-06-28 06:31:00,45.1,44.3,29.00,NNW,335,0.0,0.0,97,0.00,OVC,FEW,0.00,0.0,WeatherDisplay:10.37,2013-06-28 04:31:00,
2013-06-28 06:36:00,45.3,44.5,29.00,NNW,335,0.0,0.0,97,0.00,OVC,FEW,0.00,0.0,WeatherDisplay:10.37,2013-06-28 04:36:00,
2013-06-28 06:41:00,45.3,44.5,29.00,North,0,0.0,0.0,97,0.00,OVC,FEW,0.00,0.0,WeatherDisplay:10.37,2013-06-28 04:41:00,
2013-06-28 06:46:00,45.5,44.7,29.00,North,0,0.0,0.0,97,0.00,OVC,FEW,0.00,0.0,WeatherDisplay:10.37,2013-06-28 04:46:00,
2013-06-28 06:51:00,46.0,45.2,29.00,NNW,340,0.0,0.0,97,0.00,OVC,FEW,0.00,0.0,WeatherDisplay:10.37,2013-06-28 04:51:00,
2013-06-28 06:56:00,46.9,45.9,29.00,NNE,30,0.0,0.2,96,0.00,OVC,FEW,0.00,0.0,WeatherDisplay:10.37,2013-06-28 04:56:00,
2013-06-28 07:01:00,48.2,47.4,29.00,NNE,25,0.0,0.0,97,0.00,OVC,FEW,0.00,0.0,WeatherDisplay:10.37,2013-06-28 05:01:00,
2013-06-28 07:06:00,48.2,47.4,29.00,NNE,25,0.0,0.0,97,0.00,OVC,FEW,0.00,0.0,WeatherDisplay:10.37,2013-06-28 05:06:00,
2013-06-28 07:11:00,48.2,47.4,29.00,North,10,0.0,0.0,97,0.00,OVC,FEW,0.00,0.0,WeatherDisplay:10.37,2013-06-28 05:11:00,
2013-06-28 07:16:00,49.3,48.5,29.00,NNW,340,2.3,2.3,97,0.00,OVC,FEW,0.00,0.0,WeatherDisplay:10.37,2013-06-28 05:16:00,
2013-06-28 07:21:00,49.5,48.4,29.00,NE,35,1.1,1.1,96,0.00,OVC,FEW,0.00,0.0,WeatherDisplay:10.37,2013-06-28 05:21:00,
2013-06-28 07:26:00,49.6,48.5,29.00,NE,40,1.1,1.3,96,0.00,OVC,FEW,0.00,0.0,WeatherDisplay:10.37,2013-06-28 05:26:00,
2013-06-28 07:31:00,49.6,48.5,29.00,NE,40,1.1,1.3,96,0.00,OVC,FEW,0.00,0.0,WeatherDisplay:10.37,2013-06-28 05:31:00,
2013-06-28 07:36:00,51.1,50.0,29.00,NNE,30,0.0,0.2,96,0.00,OVC,FEW,0.00,0.0,WeatherDisplay:10.37,2013-06-28 05:36:00,
2013-06-28 07:41:00,51.8,50.7,29.00,NNE,30,0.0,0.0,96,0.00,OVC,FEW,0.00,0.0,WeatherDisplay:10.37,2013-06-28 05:41:00,
2013-06-28 07:46:00,52.0,50.9,29.00,North,355,1.1,1.5,96,0.00,OVC,FEW,0.00,0.0,WeatherDisplay:10.37,2013-06-28 05:46:00,
2013-06-28 07:51:00,51.6,50.2,29.00,NE,40,3.5,3.8,95,0.00,OVC,FEW,0.00,0.0,WeatherDisplay:10.37,2013-06-28 05:51:00,
2013-06-28 07:56:00,52.2,50.8,29.00,NNE,15,3.5,3.8,95,0.00,OVC,FEW,0.00,0.0,WeatherDisplay:10.37,2013-06-28 05:56:00,
2013-06-28 08:01:00,53.2,51.6,29.00,NNE,15,2.3,2.3,94,0.00,OVC,FEW,0.00,0.0,WeatherDisplay:10.37,2013-06-28 06:01:00,
2013-06-28 08:06:00,53.2,51.6,29.00,NNE,15,2.3,2.3,94,0.00,OVC,FEW,0.00,0.0,WeatherDisplay:10.37,2013-06-28 06:06:00,
2013-06-28 08:11:00,53.8,51.5,29.00,NE,40,3.5,3.5,92,0.00,OVC,FEW,0.00,0.0,WeatherDisplay:10.37,2013-06-28 06:11:00,
2013-06-28 08:16:00,54.1,51.6,29.00,NE,40,2.3,2.4,91,0.00,OVC,FEW,0.00,0.0,WeatherDisplay:10.37,2013-06-28 06:16:00,
2013-06-28 08:21:00,54.1,51.0,29.00,NE,40,2.3,2.3,89,0.00,OVC,FEW,0.00,0.0,WeatherDisplay:10.37,2013-06-28 06:21:00,
2013-06-28 08:26:00,54.9,51.4,28.97,North,355,1.1,1.1,88,0.00,OVC,FEW,0.00,0.0,WeatherDisplay:10.37,2013-06-28 06:26:00,
2013-06-28 08:31:00,54.9,51.4,28.97,North,355,1.1,1.1,88,0.00,OVC,FEW,0.00,0.0,WeatherDisplay:10.37,2013-06-28 06:31:00,
2013-06-28 08:36:00,55.0,51.2,28.97,ENE,60,2.3,2.3,87,0.00,OVC,FEW,0.00,0.0,WeatherDisplay:10.37,2013-06-28 06:36:00,
2013-06-28 08:41:00,55.2,51.4,29.00,NE,40,3.5,3.5,87,0.00,OVC,FEW,0.00,0.0,WeatherDisplay:10.37,2013-06-28 06:41:00,
2013-06-28 08:46:00,56.5,52.3,29.00,NW,325,1.1,1.3,86,0.00,OVC,FEW,0.00,0.0,WeatherDisplay:10.37,2013-06-28 06:46:00,
2013-06-28 08:51:00,56.8,52.1,29.00,North,10,2.3,2.3,84,0.00,OVC,FEW,0.00,0.0,WeatherDisplay:10.37,2013-06-28 06:51:00,
2013-06-28 08:56:00,57.7,52.9,29.00,NNE,15,2.3,2.6,84,0.00,OVC,FEW,0.00,0.0,WeatherDisplay:10.37,2013-06-28 06:56:00,
2013-06-28 09:01:00,57.4,52.3,29.00,NE,55,2.3,2.3,83,0.00,OVC,FEW,0.00,0.0,WeatherDisplay:10.37,2013-06-28 07:01:00,
2013-06-28 09:06:00,57.4,52.3,29.00,NE,55,2.3,2.3,83,0.00,OVC,FEW,0.00,0.0,WeatherDisplay:10.37,2013-06-28 07:06:00,
2013-06-28 09:11:00,56.7,50.9,29.00,North,10,3.5,3.5,81,0.00,OVC,FEW,0.00,0.0,WeatherDisplay:10.37,2013-06-28 07:11:00,
2013-06-28 09:16:00,56.8,51.4,29.00,NNE,30,4.6,4.6,82,0.00,OVC,FEW,0.00,0.0,WeatherDisplay:10.37,2013-06-28 07:16:00,
2013-06-28 09:21:00,57.9,52.5,29.00,NE,45,2.3,2.4,82,0.00,OVC,FEW,0.00,0.0,WeatherDisplay:10.37,2013-06-28 07:21:00,
2013-06-28 09:26:00,58.1,51.3,29.00,NNW,340,2.3,2.4,78,0.00,OVC,FEW,0.00,0.0,WeatherDisplay:10.37,2013-06-28 07:26:00,
2013-06-28 09:31:00,58.1,51.3,29.00,NNW,340,2.3,2.4,78,0.00,OVC,FEW,0.00,0.0,WeatherDisplay:10.37,2013-06-28 07:31:00,
2013-06-28 09:36:00,58.1,50.6,29.00,North,350,2.3,2.4,76,0.00,OVC,FEW,0.00,0.0,WeatherDisplay:10.37,2013-06-28 07:36:00,
2013-06-28 09:41:00,57.6,50.4,28.97,NE,35,4.6,4.9,77,0.00,OVC,FEW,0.00,0.0,WeatherDisplay:10.37,2013-06-28 07:41:00,
2013-06-28 09:46:00,57.6,50.4,28.97,NE,35,4.6,4.9,77,0.00,OVC,FEW,0.00,0.0,WeatherDisplay:10.37,2013-06-28 07:46:00,
2013-06-28 09:51:00,58.1,51.3,28.97,NNE,25,4.6,4.6,78,0.00,OVC,FEW,0.00,0.0,WeatherDisplay:10.37,2013-06-28 07:51:00,
2013-06-28 09:56:00,57.9,50.8,29.00,NNE,15,4.6,4.7,77,0.00,OVC,FEW,0.00,0.0,WeatherDisplay:10.37,2013-06-28 07:56:00,
2013-06-28 10:01:00,58.5,50.9,29.00,NE,45,4.6,4.6,76,0.00,OVC,FEW,0.00,0.0,WeatherDisplay:10.37,2013-06-28 08:01:00,
2013-06-28 10:06:00,58.5,50.9,29.00,NE,45,4.6,4.6,76,0.00,OVC,FEW,0.00,0.0,WeatherDisplay:10.37,2013-06-28 08:06:00,
2013-06-28 10:11:00,59.0,51.4,29.00,NE,45,4.6,5.1,76,0.00,OVC,FEW,0.00,0.0,WeatherDisplay:10.37,2013-06-28 08:11:00,
2013-06-28 10:16:00,59.5,51.6,29.00,North,0,3.5,3.5,75,0.00,OVC,FEW,0.00,0.0,WeatherDisplay:10.37,2013-06-28 08:16:00,
2013-06-28 10:21:00,60.4,51.7,29.00,NNE,20,4.6,4.6,73,0.00,OVC,FEW,0.00,0.0,WeatherDisplay:10.37,2013-06-28 08:21:00,
2013-06-28 10:26:00,60.6,51.2,29.00,NE,50,5.8,5.8,71,0.00,OVC,FEW,0.00,0.0,WeatherDisplay:10.37,2013-06-28 08:26:00,
2013-06-28 10:31:00,60.6,51.2,29.00,NE,50,5.8,5.8,71,0.00,OVC,FEW,0.00,0.0,WeatherDisplay:10.37,2013-06-28 08:31:00,
2013-06-28 10:36:00,60.4,50.2,29.00,NNE,25,6.9,6.9,69,0.00,OVC,FEW,0.00,0.0,WeatherDisplay:10.37,2013-06-28 08:36:00,
2013-06-28 10:41:00,62.4,51.7,29.00,WNW,300,0.0,0.2,68,0.00,OVC,FEW,0.00,0.0,WeatherDisplay:10.37,2013-06-28 08:41:00,
2013-06-28 10:46:00,62.2,49.5,29.00,NE,45,3.5,3.8,63,0.00,OVC,FEW,0.00,0.0,WeatherDisplay:10.37,2013-06-28 08:46:00,
2013-06-28 10:51:00,62.8,50.4,29.00,NW,325,5.8,5.8,64,0.00,OVC,FEW,0.00,0.0,WeatherDisplay:10.37,2013-06-28 08:51:00,
2013-06-28 10:56:00,63.3,49.6,29.00,WSW,240,5.8,5.8,61,0.00,OVC,FEW,0.00,0.0,WeatherDisplay:10.37,2013-06-28 08:56:00,
2013-06-28 11:01:00,63.3,49.6,29.00,West,265,3.5,3.5,61,0.00,OVC,FEW,0.00,0.0,WeatherDisplay:10.37,2013-06-28 09:01:00,
2013-06-28 11:06:00,63.3,49.6,29.00,West,265,3.5,3.5,61,0.00,OVC,FEW,0.00,0.0,WeatherDisplay:10.37,2013-06-28 09:06:00,
2013-06-28 11:11:00,63.3,47.8,29.00,SW,225,4.6,5.1,57,0.00,OVC,FEW,0.00,0.0,WeatherDisplay:10.37,2013-06-28 09:11:00,
2013-06-28 11:16:00,64.9,52.0,29.00,North,355,3.5,3.5,63,0.00,OVC,FEW,0.00,0.0,WeatherDisplay:10.37,2013-06-28 09:16:00,
2013-06-28 11:21:00,61.5,48.8,29.00,NNE,15,2.3,2.8,63,0.00,OVC,FEW,0.00,0.0,WeatherDisplay:10.37,2013-06-28 09:21:00,
2013-06-28 11:26:00,61.9,49.6,28.97,NNW,345,1.1,1.5,64,0.00,OVC,FEW,0.00,0.0,WeatherDisplay:10.37,2013-06-28 09:26:00,
2013-06-28 11:31:00,61.9,49.6,28.97,NNW,345,1.1,1.5,64,0.00,OVC,FEW,0.00,0.0,WeatherDisplay:10.37,2013-06-28 09:31:00,
2013-06-28 11:36:00,62.2,49.9,28.97,NNW,340,4.6,4.6,64,0.00,OVC,FEW,0.00,0.0,WeatherDisplay:10.37,2013-06-28 09:36:00,
2013-06-28 11:41:00,63.7,50.8,28.97,NW,325,4.6,4.6,63,0.00,OVC,FEW,0.00,0.0,WeatherDisplay:10.37,2013-06-28 09:41:00,
2013-06-28 11:46:00,62.8,49.6,28.97,NE,35,11.5,12.1,62,0.00,OVC,FEW,0.00,0.0,WeatherDisplay:10.37,2013-06-28 09:46:00,
2013-06-28 11:51:00,63.3,50.5,28.97,North,355,5.8,5.8,63,0.00,OVC,FEW,0.00,0.0,WeatherDisplay:10.37,2013-06-28 09:51:00,
2013-06-28 11:56:00,63.1,49.0,28.97,NE,45,8.1,8.1,60,0.00,OVC,FEW,0.00,0.0,WeatherDisplay:10.37,2013-06-28 09:56:00,
2013-06-28 12:01:00,63.5,49.4,28.97,NNE,25,3.5,3.8,60,0.00,OVC,FEW,0.00,0.0,WeatherDisplay:10.37,2013-06-28 10:01:00,
2013-06-28 12:06:00,63.5,49.4,28.97,NNE,25,3.5,3.8,60,0.00,OVC,FEW,0.00,0.0,WeatherDisplay:10.37,2013-06-28 10:06:00,
2013-06-28 12:11:00,64.4,49.8,28.97,West,270,3.5,4.0,59,0.00,OVC,FEW,0.00,0.0,WeatherDisplay:10.37,2013-06-28 10:11:00,
2013-06-28 12:16:00,64.8,50.1,28.97,NNE,20,3.5,4.0,59,0.00,OVC,FEW,0.00,0.0,WeatherDisplay:10.37,2013-06-28 10:16:00,
2013-06-28 12:21:00,63.5,48.0,28.97,WNW,290,6.9,6.9,57,0.00,OVC,FEW,0.00,0.0,WeatherDisplay:10.37,2013-06-28 10:21:00,
2013-06-28 12:26:00,64.0,47.5,28.97,NE,45,4.6,4.6,55,0.00,OVC,FEW,0.00,0.0,WeatherDisplay:10.37,2013-06-28 10:26:00,
2013-06-28 12:31:00,64.0,47.5,28.97,NE,45,4.6,4.6,55,0.00,OVC,FEW,0.00,0.0,WeatherDisplay:10.37,2013-06-28 10:31:00,
2013-06-28 12:36:00,64.6,49.9,28.97,NE,35,5.8,5.8,59,0.00,OVC,FEW,0.00,0.0,WeatherDisplay:10.37,2013-06-28 10:36:00,
2013-06-28 12:41:00,64.0,48.0,28.97,NNW,335,8.1,8.1,56,0.00,OVC,FEW,0.00,0.0,WeatherDisplay:10.37,2013-06-28 10:41:00,
2013-06-28 12:46:00,64.9,47.9,28.97,SW,230,2.3,2.3,54,0.00,OVC,FEW,0.00,0.0,WeatherDisplay:10.37,2013-06-28 10:46:00,
2013-06-28 12:51:00,64.9,47.4,28.97,NE,40,3.5,3.5,53,0.00,OVC,FEW,0.00,0.0,WeatherDisplay:10.37,2013-06-28 10:51:00,
2013-06-28 12:56:00,66.2,48.0,28.97,West,265,3.5,3.5,52,0.00,OVC,FEW,0.00,0.0,WeatherDisplay:10.37,2013-06-28 10:56:00,
2013-06-28 13:01:00,66.4,47.2,28.97,WNW,285,4.6,4.7,50,0.00,OVC,FEW,0.00,0.0,WeatherDisplay:10.37,2013-06-28 11:01:00,
2013-06-28 13:06:00,66.4,47.2,28.97,WNW,285,4.6,4.7,50,0.00,OVC,FEW,0.00,0.0,WeatherDisplay:10.37,2013-06-28 11:06:00,
2013-06-28 13:11:00,65.1,46.5,28.97,North,10,6.9,7.1,51,0.00,OVC,FEW,0.00,0.0,WeatherDisplay:10.37,2013-06-28 11:11:00,
2013-06-28 13:16:00,64.8,45.1,28.97,ESE,120,5.8,5.8,49,0.00,OVC,FEW,0.00,0.0,WeatherDisplay:10.37,2013-06-28 11:16:00,
2013-06-28 13:21:00,65.1,46.0,28.97,ENE,60,5.8,5.8,50,0.00,OVC,FEW,0.00,0.0,WeatherDisplay:10.37,2013-06-28 11:21:00,
2013-06-28 13:26:00,65.1,44.9,28.97,NNE,25,4.6,4.6,48,0.00,OVC,FEW,0.00,0.0,WeatherDisplay:10.37,2013-06-28 11:26:00,
2013-06-28 13:31:00,65.1,44.9,28.97,NNE,25,4.6,4.6,48,0.00,OVC,FEW,0.00,0.0,WeatherDisplay:10.37,2013-06-28 11:31:00,
2013-06-28 13:36:00,65.8,46.7,28.97,ESE,105,2.3,2.8,50,0.00,OVC,FEW,0.00,0.0,WeatherDisplay:10.37,2013-06-28 11:36:00,
2013-06-28 13:41:00,66.4,47.7,28.97,WSW,240,3.5,4.0,51,0.00,OVC,FEW,0.00,0.0,WeatherDisplay:10.37,2013-06-28 11:41:00,
2013-06-28 13:46:00,66.2,45.4,28.97,North,0,2.3,2.8,47,0.00,OVC,FEW,0.00,0.0,WeatherDisplay:10.37,2013-06-28 11:46:00,
2013-06-28 13:51:00,65.8,46.7,28.97,NNE,20,6.9,6.9,50,0.00,OVC,FEW,0.00,0.0,WeatherDisplay:10.37,2013-06-28 11:51:00,
2013-06-28 13:56:00,65.5,44.1,28.97,ENE,65,4.6,4.7,46,0.00,OVC,FEW,0.00,0.0,WeatherDisplay:10.37,2013-06-28 11:56:00,
2013-06-28 14:01:00,66.7,45.3,28.97,ENE,65,1.1,1.5,46,0.00,OVC,FEW,0.00,0.0,WeatherDisplay:10.37,2013-06-28 12:01:00,
2013-06-28 14:06:00,66.7,45.3,28.97,ENE,65,1.1,1.5,46,0.00,OVC,FEW,0.00,0.0,WeatherDisplay:10.37,2013-06-28 12:06:00,
2013-06-28 14:11:00,65.3,44.5,28.97,SE,135,4.6,4.6,47,0.00,OVC,FEW,0.00,0.0,WeatherDisplay:10.37,2013-06-28 12:11:00,
2013-06-28 14:16:00,67.1,47.3,28.97,ENE,65,3.5,3.5,49,0.00,OVC,FEW,0.00,0.0,WeatherDisplay:10.37,2013-06-28 12:16:00,
2013-06-28 14:21:00,66.9,45.5,28.97,North,350,2.3,2.4,46,0.00,OVC,FEW,0.00,0.0,WeatherDisplay:10.37,2013-06-28 12:21:00,
2013-06-28 14:26:00,65.1,45.5,28.97,NNE,15,6.9,7.1,49,0.00,OVC,FEW,0.00,0.0,WeatherDisplay:10.37,2013-06-28 12:26:00,
2013-06-28 14:31:00,65.1,45.5,28.97,NNE,15,6.9,7.1,49,0.00,OVC,FEW,0.00,0.0,WeatherDisplay:10.37,2013-06-28 12:31:00,
2013-06-28 14:36:00,66.6,45.1,28.97,SE,145,0.0,0.0,46,0.00,OVC,FEW,0.00,0.0,WeatherDisplay:10.37,2013-06-28 12:36:00,
2013-06-28 14:41:00,67.3,48.0,28.94,NE,45,2.3,2.6,50,0.00,OVC,FEW,0.00,0.0,WeatherDisplay:10.37,2013-06-28 12:41:00,
2013-06-28 14:46:00,66.4,46.6,28.94,WNW,300,4.6,4.6,49,0.00,OVC,FEW,0.00,0.0,WeatherDisplay:10.37,2013-06-28 12:46:00,
2013-06-28 14:51:00,66.6,46.8,28.94,NE,35,6.9,7.0,49,0.00,OVC,FEW,0.00,0.0,WeatherDisplay:10.37,2013-06-28 12:51:00,
2013-06-28 14:56:00,66.6,46.8,28.94,NE,35,6.9,7.0,49,0.00,OVC,FEW,0.00,0.0,WeatherDisplay:10.37,2013-06-28 12:56:00,
2013-06-28 15:01:00,65.1,46.0,28.97,NE,40,3.5,4.0,50,0.00,OVC,FEW,0.00,0.0,WeatherDisplay:10.37,2013-06-28 13:01:00,
2013-06-28 15:06:00,65.1,46.0,28.97,NE,40,3.5,4.0,50,0.00,OVC,FEW,0.00,0.0,WeatherDisplay:10.37,2013-06-28 13:06:00,
2013-06-28 15:11:00,65.8,47.2,28.97,North,350,3.5,3.8,51,0.00,OVC,FEW,0.00,0.0,WeatherDisplay:10.37,2013-06-28 13:11:00,
2013-06-28 15:16:00,66.0,48.9,28.97,West,270,3.5,3.5,54,0.00,OVC,FEW,0.00,0.0,WeatherDisplay:10.37,2013-06-28 13:16:00,
2013-06-28 15:21:00,66.2,50.0,28.97,West,260,2.3,2.3,56,0.00,OVC,FEW,0.00,0.0,WeatherDisplay:10.37,2013-06-28 13:21:00,
2013-06-28 15:26:00,65.7,49.0,28.94,NNE,15,5.8,5.8,55,0.00,OVC,FEW,0.00,0.0,WeatherDisplay:10.37,2013-06-28 13:26:00,
2013-06-28 15:31:00,65.7,49.0,28.94,NNE,15,5.8,5.8,55,0.00,OVC,FEW,0.00,0.0,WeatherDisplay:10.37,2013-06-28 13:31:00,
2013-06-28 15:36:00,65.3,49.2,28.94,NNE,30,5.8,5.8,56,0.00,OVC,FEW,0.00,0.0,WeatherDisplay:10.37,2013-06-28 13:36:00,
2013-06-28 15:41:00,65.8,50.2,28.94,North,5,3.5,3.5,57,0.00,OVC,FEW,0.00,0.0,WeatherDisplay:10.37,2013-06-28 13:41:00,
2013-06-28 15:46:00,65.1,48.5,28.94,NNE,25,3.5,4.0,55,0.00,OVC,FEW,0.00,0.0,WeatherDisplay:10.37,2013-06-28 13:46:00,
2013-06-28 15:51:00,65.1,48.5,28.94,NNE,25,3.5,4.0,55,0.00,OVC,FEW,0.00,0.0,WeatherDisplay:10.37,2013-06-28 13:51:00,
2013-06-28 15:56:00,64.8,49.2,28.94,NNW,345,5.8,6.0,57,0.00,OVC,FEW,0.00,0.0,WeatherDisplay:10.37,2013-06-28 13:56:00,
2013-06-28 16:01:00,64.8,49.6,28.94,West,265,3.5,3.8,58,0.00,OVC,FEW,0.00,0.0,WeatherDisplay:10.37,2013-06-28 14:01:00,
2013-06-28 16:06:00,64.8,49.6,28.94,West,265,3.5,3.8,58,0.00,OVC,FEW,0.00,0.0,WeatherDisplay:10.37,2013-06-28 14:06:00,
2013-06-28 16:11:00,63.9,48.8,28.94,NE,40,8.1,8.3,58,0.00,OVC,FEW,0.00,0.0,WeatherDisplay:10.37,2013-06-28 14:11:00,
2013-06-28 16:16:00,63.7,49.5,28.94,North,355,5.8,6.0,60,0.00,OVC,FEW,0.00,0.0,WeatherDisplay:10.37,2013-06-28 14:16:00,
2013-06-28 16:21:00,63.7,49.5,28.94,North,355,2.3,2.8,60,0.00,OVC,FEW,0.00,0.0,WeatherDisplay:10.37,2013-06-28 14:21:00,
2013-06-28 16:26:00,63.3,49.6,28.94,NNW,340,4.6,4.6,61,0.00,OVC,FEW,0.00,0.0,WeatherDisplay:10.37,2013-06-28 14:26:00,
2013-06-28 16:31:00,63.3,49.6,28.94,NNW,340,4.6,4.6,61,0.00,OVC,FEW,0.00,0.0,WeatherDisplay:10.37,2013-06-28 14:31:00,
2013-06-28 16:36:00,63.3,49.6,28.94,North,0,2.3,2.4,61,0.00,OVC,FEW,0.00,0.0,WeatherDisplay:10.37,2013-06-28 14:36:00,
2013-06-28 16:41:00,62.8,49.1,28.94,NNE,15,4.6,4.7,61,0.00,OVC,FEW,0.00,0.0,WeatherDisplay:10.37,2013-06-28 14:41:00,
2013-06-28 16:46:00,63.0,49.7,28.94,North,350,3.5,3.5,62,0.00,OVC,FEW,0.00,0.0,WeatherDisplay:10.37,2013-06-28 14:46:00,
2013-06-28 16:51:00,62.8,49.6,28.94,ENE,60,4.6,4.7,62,0.00,OVC,FEW,0.00,0.0,WeatherDisplay:10.37,2013-06-28 14:51:00,
2013-06-28 16:56:00,63.1,50.3,28.94,NW,320,1.1,1.7,63,0.00,OVC,FEW,0.00,0.0,WeatherDisplay:10.37,2013-06-28 14:56:00,
2013-06-28 17:01:00,63.3,50.5,28.94,NNE,20,1.1,1.7,63,0.00,OVC,FEW,0.00,0.0,WeatherDisplay:10.37,2013-06-28 15:01:00,
2013-06-28 17:06:00,63.3,50.5,28.94,NNE,20,1.1,1.7,63,0.00,OVC,FEW,0.00,0.0,WeatherDisplay:10.37,2013-06-28 15:06:00,
2013-06-28 17:11:00,63.5,50.7,28.94,NNE,25,2.3,2.4,63,0.00,OVC,FEW,0.00,0.0,WeatherDisplay:10.37,2013-06-28 15:11:00,
2013-06-28 17:16:00,63.7,50.8,28.94,NE,35,3.5,3.5,63,0.00,OVC,FEW,0.00,0.0,WeatherDisplay:10.37,2013-06-28 15:16:00,
2013-06-28 17:21:00,63.9,50.1,28.94,NE,55,5.8,5.8,61,0.00,OVC,FEW,0.00,0.0,WeatherDisplay:10.37,2013-06-28 15:21:00,
2013-06-28 17:26:00,64.0,49.9,28.94,NE,55,4.6,5.1,60,0.00,OVC,FEW,0.00,0.0,WeatherDisplay:10.37,2013-06-28 15:26:00,
2013-06-28 17:31:00,64.0,49.9,28.94,NE,55,4.6,5.1,60,0.00,OVC,FEW,0.00,0.0,WeatherDisplay:10.37,2013-06-28 15:31:00,
2013-06-28 17:36:00,64.6,50.4,28.94,NE,55,3.5,4.0,60,0.00,OVC,FEW,0.00,0.0,WeatherDisplay:10.37,2013-06-28 15:36:00,
2013-06-28 17:41:00,65.1,50.4,28.94,West,275,2.3,2.6,59,0.00,OVC,FEW,0.00,0.0,WeatherDisplay:10.37,2013-06-28 15:41:00,
2013-06-28 17:46:00,65.5,50.8,28.94,West,270,2.3,2.3,59,0.00,OVC,FEW,0.00,0.0,WeatherDisplay:10.37,2013-06-28 15:46:00,
2013-06-28 17:51:00,65.8,50.6,28.94,North,355,4.6,4.9,58,0.00,OVC,FEW,0.00,0.0,WeatherDisplay:10.37,2013-06-28 15:51:00,
2013-06-28 17:56:00,65.8,50.2,28.94,NW,325,4.6,4.7,57,0.00,OVC,FEW,0.00,0.0,WeatherDisplay:10.37,2013-06-28 15:56:00,
2013-06-28 18:01:00,66.9,51.2,28.94,WSW,250,6.9,6.9,57,0.00,OVC,FEW,0.00,0.0,WeatherDisplay:10.37,2013-06-28 16:01:00,
2013-06-28 18:06:00,66.9,51.2,28.94,WSW,250,6.9,6.9,57,0.00,OVC,FEW,0.00,0.0,WeatherDisplay:10.37,2013-06-28 16:06:00,
2013-06-28 18:11:00,67.5,50.7,28.94,WNW,285,4.6,4.6,55,0.00,OVC,FEW,0.00,0.0,WeatherDisplay:10.37,2013-06-28 16:11:00,
2013-06-28 18:16:00,66.9,49.2,28.91,NW,305,3.5,3.8,53,0.00,OVC,FEW,0.00,0.0,WeatherDisplay:10.37,2013-06-28 16:16:00,
2013-06-28 18:22:00,66.9,49.2,28.91,NW,305,3.5,3.8,53,0.00,OVC,FEW,0.00,0.0,WeatherDisplay:10.37,2013-06-28 16:22:00,
2013-06-28 18:27:00,68.0,50.2,28.94,NE,55,1.1,1.7,53,0.00,OVC,FEW,0.00,0.0,WeatherDisplay:10.37,2013-06-28 16:27:00,
2013-06-28 18:32:00,68.0,50.2,28.94,NE,55,1.1,1.7,53,0.00,OVC,FEW,0.00,0.0,WeatherDisplay:10.37,2013-06-28 16:32:00,
2013-06-28 18:37:00,68.2,49.9,28.94,WNW,285,3.5,3.5,52,0.00,OVC,FEW,0.00,0.0,WeatherDisplay:10.37,2013-06-28 16:37:00,
2013-06-28 18:42:00,66.6,48.9,28.94,NNE,25,4.6,4.6,53,0.00,OVC,FEW,0.00,0.0,WeatherDisplay:10.37,2013-06-28 16:42:00,
2013-06-28 18:47:00,66.2,50.5,28.94,NNE,25,2.3,2.3,57,0.00,OVC,FEW,0.00,0.0,WeatherDisplay:10.37,2013-06-28 16:47:00,
2013-06-28 18:52:00,66.2,50.5,28.94,North,355,2.3,2.3,57,0.00,OVC,FEW,0.00,0.0,WeatherDisplay:10.37,2013-06-28 16:52:00,
2013-06-28 18:57:00,64.8,50.5,28.94,NNW,345,0.0,0.0,60,0.00,OVC,FEW,0.00,0.0,WeatherDisplay:10.37,2013-06-28 16:57:00,
2013-06-28 19:02:00,63.7,50.4,28.94,NNE,20,0.0,0.6,62,0.00,OVC,FEW,0.00,0.0,WeatherDisplay:10.37,2013-06-28 17:02:00,
2013-06-28 19:07:00,63.7,50.4,28.94,NNE,20,0.0,0.6,62,0.00,OVC,FEW,0.00,0.0,WeatherDisplay:10.37,2013-06-28 17:07:00,
2013-06-28 19:12:00,63.9,51.9,28.94,NNE,20,1.1,1.3,65,0.00,OVC,FEW,0.00,0.0,WeatherDisplay:10.37,2013-06-28 17:12:00,
2013-06-28 19:17:00,63.3,50.9,28.94,ENE,70,1.1,1.1,64,0.00,OVC,FEW,0.00,0.0,WeatherDisplay:10.37,2013-06-28 17:17:00,
2013-06-28 19:22:00,62.6,51.9,28.94,NNW,340,1.1,1.5,68,0.00,OVC,FEW,0.00,0.0,WeatherDisplay:10.37,2013-06-28 17:22:00,
2013-06-28 19:27:00,62.1,52.2,28.94,NNE,20,0.0,0.0,70,0.00,OVC,FEW,0.00,0.0,WeatherDisplay:10.37,2013-06-28 17:27:00,
2013-06-28 19:32:00,62.1,52.2,28.94,NNE,20,0.0,0.0,70,0.00,OVC,FEW,0.00,0.0,WeatherDisplay:10.37,2013-06-28 17:32:00,
2013-06-28 19:37:00,61.5,52.0,28.94,NNW,345,0.0,0.0,71,0.00,OVC,FEW,0.00,0.0,WeatherDisplay:10.37,2013-06-28 17:37:00,
2013-06-28 19:42:00,61.2,52.8,28.94,North,10,0.0,0.0,74,0.00,OVC,FEW,0.00,0.0,WeatherDisplay:10.37,2013-06-28 17:42:00,
2013-06-28 19:47:00,60.3,52.3,28.94,NNE,15,0.0,0.0,75,0.00,OVC,FEW,0.00,0.0,WeatherDisplay:10.37,2013-06-28 17:47:00,
2013-06-28 19:52:00,60.1,52.8,28.94,North,355,0.0,0.0,77,0.00,OVC,FEW,0.00,0.0,WeatherDisplay:10.37,2013-06-28 17:52:00,
2013-06-28 19:57:00,59.7,52.8,28.94,North,355,0.0,0.0,78,0.00,OVC,FEW,0.00,0.0,WeatherDisplay:10.37,2013-06-28 17:57:00,
2013-06-28 20:02:00,59.4,53.2,28.94,North,10,0.0,0.0,80,0.00,OVC,FEW,0.00,0.0,WeatherDisplay:10.37,2013-06-28 18:02:00,
2013-06-28 20:07:00,59.4,53.2,28.94,North,10,0.0,0.0,80,0.00,OVC,FEW,0.00,0.0,WeatherDisplay:10.37,2013-06-28 18:07:00,
2013-06-28 20:12:00,59.0,53.2,28.94,North,350,0.0,0.0,81,0.00,OVC,FEW,0.00,0.0,WeatherDisplay:10.37,2013-06-28 18:12:00,
2013-06-28 20:17:00,58.6,52.8,28.94,North,0,0.0,0.2,81,0.00,OVC,FEW,0.00,0.0,WeatherDisplay:10.37,2013-06-28 18:17:00,
2013-06-28 20:22:00,58.3,52.5,28.94,NNW,345,0.0,0.0,81,0.00,OVC,FEW,0.00,0.0,WeatherDisplay:10.37,2013-06-28 18:22:00,
2013-06-28 20:27:00,58.3,52.8,28.94,NNW,345,0.0,0.0,82,0.00,OVC,FEW,0.00,0.0,WeatherDisplay:10.37,2013-06-28 18:27:00,
2013-06-28 20:32:00,58.3,52.8,28.94,NNW,345,0.0,0.0,82,0.00,OVC,FEW,0.00,0.0,WeatherDisplay:10.37,2013-06-28 18:32:00,
2013-06-28 20:37:00,58.3,53.1,28.94,North,355,0.0,0.0,83,0.00,OVC,FEW,0.00,0.0,WeatherDisplay:10.37,2013-06-28 18:37:00,
2013-06-28 20:42:00,58.1,53.0,28.94,NNW,335,0.0,0.0,83,0.00,OVC,FEW,0.00,0.0,WeatherDisplay:10.37,2013-06-28 18:42:00,
2013-06-28 20:47:00,58.1,53.0,28.94,NNW,335,0.0,0.0,83,0.00,OVC,FEW,0.00,0.0,WeatherDisplay:10.37,2013-06-28 18:47:00,
2013-06-28 20:52:00,57.6,52.4,28.94,NNW,335,0.0,0.0,83,0.00,OVC,FEW,0.00,0.0,WeatherDisplay:10.37,2013-06-28 18:52:00,
2013-06-28 20:57:00,57.6,52.4,28.94,NNW,335,0.0,0.0,83,0.00,OVC,FEW,0.00,0.0,WeatherDisplay:10.37,2013-06-28 18:57:00,
2013-06-28 21:02:00,57.6,52.4,28.94,NNW,335,0.0,0.0,83,0.00,OVC,FEW,0.00,0.0,WeatherDisplay:10.37,2013-06-28 19:02:00,
2013-06-28 21:07:00,57.6,52.4,28.94,NNW,335,0.0,0.0,83,0.00,OVC,FEW,0.00,0.0,WeatherDisplay:10.37,2013-06-28 19:07:00,
2013-06-28 21:12:00,57.2,52.4,28.94,NNW,335,0.0,0.0,84,0.00,OVC,FEW,0.00,0.0,WeatherDisplay:10.37,2013-06-28 19:12:00,
2013-06-28 21:17:00,56.8,52.1,28.94,NNW,335,0.0,0.0,84,0.00,OVC,FEW,0.00,0.0,WeatherDisplay:10.37,2013-06-28 19:17:00,
2013-06-28 21:22:00,56.7,52.2,28.94,NNE,25,0.0,0.0,85,0.00,OVC,FEW,0.00,0.0,WeatherDisplay:10.37,2013-06-28 19:22:00,
2013-06-28 21:27:00,55.9,51.5,28.97,North,355,0.0,0.0,85,0.00,OVC,FEW,0.00,0.0,WeatherDisplay:10.37,2013-06-28 19:27:00,
2013-06-28 21:32:00,55.9,51.5,28.97,North,355,0.0,0.0,85,0.00,OVC,FEW,0.00,0.0,WeatherDisplay:10.37,2013-06-28 19:32:00,
2013-06-28 21:37:00,55.9,51.8,28.97,North,0,0.0,0.0,86,0.00,OVC,FEW,0.00,0.0,WeatherDisplay:10.37,2013-06-28 19:37:00,
2013-06-28 21:42:00,55.4,51.3,28.94,North,0,0.0,0.0,86,0.00,OVC,FEW,0.00,0.0,WeatherDisplay:10.37,2013-06-28 19:42:00,
2013-06-28 21:47:00,55.4,51.3,28.94,North,0,0.0,0.0,86,0.00,OVC,FEW,0.00,0.0,WeatherDisplay:10.37,2013-06-28 19:47:00,
2013-06-28 21:52:00,55.2,51.4,28.94,North,0,0.0,0.0,87,0.00,CLR,FEW,0.00,0.0,WeatherDisplay:10.37,2013-06-28 19:52:00,
2013-06-28 21:57:00,54.9,51.4,28.97,North,0,0.0,0.0,88,0.00,CLR,FEW,0.00,0.0,WeatherDisplay:10.37,2013-06-28 19:57:00,
2013-06-28 22:02:00,54.7,51.2,28.97,North,0,0.0,0.0,88,0.00,CLR,FEW,0.00,0.0,WeatherDisplay:10.37,2013-06-28 20:02:00,
2013-06-28 22:07:00,54.7,51.2,28.97,North,0,0.0,0.0,88,0.00,CLR,FEW,0.00,0.0,WeatherDisplay:10.37,2013-06-28 20:07:00,
2013-06-28 22:12:00,54.5,51.0,28.97,North,0,0.0,0.0,88,0.00,CLR,FEW,0.00,0.0,WeatherDisplay:10.37,2013-06-28 20:12:00,
2013-06-28 22:17:00,54.5,51.0,28.94,North,0,0.0,0.0,88,0.00,CLR,FEW,0.00,0.0,WeatherDisplay:10.37,2013-06-28 20:17:00,
2013-06-28 22:22:00,54.1,51.0,28.94,North,355,0.0,0.0,89,0.00,CLR,FEW,0.00,0.0,WeatherDisplay:10.37,2013-06-28 20:22:00,
2013-06-28 22:27:00,54.1,51.0,28.97,North,0,0.0,0.0,89,0.00,CLR,FEW,0.00,0.0,WeatherDisplay:10.37,2013-06-28 20:27:00,
2013-06-28 22:32:00,54.1,51.0,28.97,North,0,0.0,0.0,89,0.00,CLR,FEW,0.00,0.0,WeatherDisplay:10.37,2013-06-28 20:32:00,
2013-06-28 22:37:00,54.0,50.8,28.97,North,5,0.0,0.0,89,0.00,CLR,FEW,0.00,0.0,WeatherDisplay:10.37,2013-06-28 20:37:00,
2013-06-28 22:42:00,53.8,50.9,28.94,North,5,0.0,0.0,90,0.00,CLR,FEW,0.00,0.0,WeatherDisplay:10.37,2013-06-28 20:42:00,
2013-06-28 22:47:00,53.4,50.6,28.94,North,350,0.0,0.0,90,0.00,CLR,FEW,0.00,0.0,WeatherDisplay:10.37,2013-06-28 20:47:00,
2013-06-28 22:52:00,53.2,50.7,28.94,North,350,0.0,0.0,91,0.00,CLR,FEW,0.00,0.0,WeatherDisplay:10.37,2013-06-28 20:52:00,
2013-06-28 22:57:00,53.1,50.5,28.94,NNW,340,0.0,0.0,91,0.00,CLR,FEW,0.00,0.0,WeatherDisplay:10.37,2013-06-28 20:57:00,
2013-06-28 23:02:00,52.7,50.4,28.94,North,5,0.0,0.0,92,0.00,CLR,FEW,0.00,0.0,WeatherDisplay:10.37,2013-06-28 21:02:00,
2013-06-28 23:07:00,52.7,50.4,28.94,North,5,0.0,0.0,92,0.00,CLR,FEW,0.00,0.0,WeatherDisplay:10.37,2013-06-28 21:07:00,
2013-06-28 23:12:00,52.5,50.0,28.94,NNW,335,0.0,0.0,91,0.00,CLR,FEW,0.00,0.0,WeatherDisplay:10.37,2013-06-28 21:12:00,
2013-06-28 23:17:00,52.2,49.9,28.97,North,350,0.0,0.0,92,0.00,CLR,FEW,0.00,0.0,WeatherDisplay:10.37,2013-06-28 21:17:00,
2013-06-28 23:22:00,51.8,49.5,28.97,NNW,330,0.0,0.0,92,0.00,CLR,FEW,0.00,0.0,WeatherDisplay:10.37,2013-06-28 21:22:00,
2013-06-28 23:27:00,51.4,49.2,28.97,NNW,330,0.0,0.0,92,0.00,CLR,FEW,0.00,0.0,WeatherDisplay:10.37,2013-06-28 21:27:00,
2013-06-28 23:32:00,51.4,49.2,28.97,NNW,330,0.0,0.0,92,0.00,CLR,FEW,0.00,0.0,WeatherDisplay:10.37,2013-06-28 21:32:00,
2013-06-28 23:37:00,50.9,48.9,28.97,North,0,0.0,0.0,93,0.00,CLR,FEW,0.00,0.0,WeatherDisplay:10.37,2013-06-28 21:37:00,
2013-06-28 23:42:00,50.5,48.6,28.97,North,5,0.0,0.0,93,0.00,CLR,FEW,0.00,0.0,WeatherDisplay:10.37,2013-06-28 21:42:00,
2013-06-28 23:47:00,50.4,48.4,28.97,NNW,340,0.0,0.0,93,0.00,CLR,FEW,0.00,0.0,WeatherDisplay:10.37,2013-06-28 21:47:00,
2013-06-28 23:52:00,50.2,48.2,28.97,North,350,0.0,0.0,93,0.00,CLR,FEW,0.00,0.0,WeatherDisplay:10.37,2013-06-28 21:52:00,
2013-06-28 23:57:00,50.0,48.3,28.97,North,350,0.0,0.0,94,0.00,CLR,FEW,0.00,0.0,WeatherDisplay:10.37,2013-06-28 21:57:00,